{"data":{"norad_id":62272,"intl_designator":"2024-237F","name":"STARLINK-11494 [DTC]","alt_names":[],"object_type":"PAYLOAD","status":"ACTIVE","operator":null,"country":"US","launch_date":"2024-12-08","launch_site_code":"AFETR","launch_vehicle":null,"mission":null,"orbit_class":"UNKNOWN","rcs_meters":null,"size_class":null,"mass_kg":null,"dimensions":null,"purposes":["comms"],"wikipedia_slug":null,"has_3d_model":false,"image_url":null,"decayed_at":null,"tle_current":{"epoch":"2026-09-21T07:10:38.593056Z","epoch_age_seconds":108647,"freshness":"FRESH","line1":"1 62272U 24237F   26264.29905779  .00115982  00000+0  89502-3 0  9997","line2":"2 62272  42.9966 317.7968 0002063 168.3548 191.7368 15.70833576103761","mean_motion":15.70833576,"eccentricity":0.0002063,"inclination_deg":42.9966,"raan_deg":317.7968,"arg_perigee_deg":168.3548,"mean_anomaly_deg":191.7368,"bstar":0.00089502,"rev_number":10376,"period_min":91.671073371556,"perigee_km":355.12406424322,"apogee_km":357.9027810076,"semimajor_km":6734.6504226254,"source":"CELESTRAK","updated_at":"2026-09-22T09:00:49.566702Z"}}}